User: anonymous   Login
Location: Poughquag
(41.6090°N, 73.6820°W)
Time: 03:54:12
(UTC-05:00)
Language:

DX 1 - Orbit

View from above orbital plane
View from above orbital plane
View from above satellite
View from above satellite

Ground track
Ground track

The orbit data is extracted from the following two-line orbital elements,

1 40071U 14037C   20333.04264575  .00000248  00000-0  39225-4 0  9990
2 40071  98.4596 160.5474 0008048 341.6333  18.4589 14.81418119345471
Epoch (UTC): 28 November 2020 01:01:24
Eccentricity: 0.0008048
inclination: 98.4596°
perigee height: 619 km
apogee height: 630 km
right ascension of ascending node: 160.5474°
argument of perigee: 341.6333°
revolutions per day: 14.81418119
mean anomaly at epoch: 18.4589°
orbit number at epoch: 34547

The dashed part of the orbit path shows where the satellite is in the earth's shadow,  

DLR